Terminal Aerodrome Forecast
Issued by NWS Cleveland, OH

Home | Current Version | Previous Version | Graphics & Text | Print | Product List | Glossary On
Versions: 1 2 3 4 5 6 7 8 9 10 11 12 13 14
120
FTUS41 KCLE 260530
TAFERI
TAF
KERI 260530Z 2606/2706 16010KT P6SM SCT250
     FM261700 22012G18KT 5SM -SHRA OVC025
     FM262100 27015G25KT P6SM SCT025 OVC060=

USA.gov is the U.S. government's official web portal to all federal, state and local government web resources and services.